Regional Weather Roundup
Issued by NWS

Home | Current Version | Previous Version | Text Only | Print | Product List | Glossary On
Versions: 1 2 3 4 5 6 7 8 9 10 11 12 13 14 15 16 17 18 19 20 21 22 23 24 25 26 27 28 29 30 31 32 33 34 35 36 37 38 39 40 41 42 43 44 45 46 47 48 49 50
000
ASUS44 KFWD 221515
RWRTX
NORTH TEXAS HOURLY WEATHER ROUNDUP
NATIONAL WEATHER SERVICE FORT WORTH TX
1000 AM CDT SUN OCT 22 2017

NOTE: "FAIR" INDICATES FEW OR NO CLOUDS BELOW 12,000 FEET WITH NO
SIGNIFICANT WEATHER AND/OR OBSTRUCTIONS TO VISIBILITY.

TXZ118-119-221600-
DALLAS/FORT WORTH METROPLEX

CITY           SKY/WX    TMP DP  RH WIND       PRES   REMARKS
DFW AIRPORT    PTSUNNY   67  61  81 NW12      30.14R
DALLAS LOVE    PTSUNNY   66  60  81 NW10      30.15R
FTW MEACHAM    PTSUNNY   65  61  87 NW12      30.16R
DAL-EXECUTIVE  PTSUNNY   64  63  96 NW9       30.14R
FTW-ALLIANCE   PTSUNNY   63  59  87 N10       30.17R
FTW-SPINKS     PTSUNNY   63  61  94 NW15      30.17R
ARLINGTON      PTSUNNY   63  61  93 NW13      30.15R
GRAND PRAIRIE  MOSUNNY   64  64 100 NW8       30.16R
ADDISON        PTSUNNY   64  61  88 N13       30.15R
MESQUITE       MOSUNNY   63  61  94 NW7       30.13R
LANCASTER      MOSUNNY   64  61  91 NW9       30.15R
$$

TXZ091>094-102>105-117-120-121-131>134-221600-
NORTH CENTRAL TEXAS

CITY           SKY/WX    TMP DP  RH WIND       PRES   REMARKS
SHRMAN/DENISON CLOUDY    57  56  94 NW14      30.18R
GAINESVILLE    PTSUNNY   57  52  85 N9G18     30.20R
BOWIE          SUNNY     57  52  83 NW9       30.21R
BRIDGEPORT     CLOUDY    57  53  86 N10       30.23R
DECATUR        CLOUDY    57  55  93 NW6       30.19R
DENTON         PTSUNNY   62  58  86 N15       30.17R
MCKINNEY       CLOUDY    64  63  96 NW10      30.15R
BONHAM         CLOUDY   N/A N/A N/A NW9       30.15R
GREENVILLE     CLOUDY    64  63  94 NW6       30.13R
ROCKWALL       CLOUDY    63  63  99 NW7       30.13S
TERRELL        CLOUDY    63  60  90 NW5       30.13R
WAXAHACHIE     CLOUDY    63  63 100 NW7       30.16R
CLEBURNE       MOSUNNY   63  61  94 N15       30.18R
GRANBURY       CLOUDY    63  58  85 NW9       30.20R
$$

TXZ083>090-098>101-113>116-127>130-139>142-154-155-221600-
WESTERN NORTH TEXAS

CITY           SKY/WX    TMP DP  RH WIND       PRES   REMARKS
WICHITA FALLS  SUNNY     57  49  74 NW15      30.23R
WF-KICKAPOO    SUNNY     58  50  75 NW8       30.26R
VERNON         SUNNY     56  39  52 NW8       30.26R
ABILENE        SUNNY     54  45  71 N10       30.27R
ABILENE-DYESS  SUNNY     58  45  62 N12       30.27R
GRAHAM           N/A     59  51  76 N10       30.23R
BRECKENRIDGE   SUNNY     59  48  67 N10G17    30.24R
CISCO          MOSUNNY   55  50  82 N12       30.25R
EASTLAND       CLOUDY    57  52  83 N12G20    30.24R
RANGER         CLOUDY    55  53  93 N8        30.23R
MINERAL WELLS  CLOUDY    57  53  86 NW14      30.20R
STEPHENVILLE   CLOUDY    59  55  87 N12       30.22R
COMANCHE       CLOUDY    58  58 100 N10G16    30.22R
COLEMAN        SUNNY     59  47  64 N17G25    30.24R
$$

TXZ143>147-156>162-174-175-221600-
CENTRAL TEXAS

CITY           SKY/WX    TMP DP  RH WIND       PRES   REMARKS
WACO           CLOUDY    65  61  87 MISG      30.15R
WACO-TSTC      PTSUNNY   63  61  94 NW6       30.15R
WACO-MCGREGOR  CLOUDY    63  61  93 NW8       30.17R
CORSICANA      CLOUDY    63  62  97 W5        30.14R
MEXIA          CLOUDY    61  60  96 W10       30.11F
HEARNE         CLOUDY    62  62 100 NW6       30.14R
CAMERON        CLOUDY    62  61  96 N6        30.15R
TEMPLE         CLOUDY    63  61  93 N7        30.16R
KILLEEN        PTSUNNY   63  57  82 N16       30.16R
KILLEEN-SKYLRK CLOUDY    61  58  90 N9        30.17R
FORT HOOD      CLOUDY    59  57  94 N12       30.14R
GATESVILLE     CLOUDY    61  57  88 N9        30.19R
HAMILTON       CLOUDY    60  60  99 N9        30.20R
LAMPASAS       CLOUDY    60  57  89 N8G18     30.18R
$$

TXZ095>097-106>112-122>126-135>138-148>153-164>167-221600-
EAST TEXAS

CITY           SKY/WX    TMP DP  RH WIND       PRES   REMARKS
PARIS          CLOUDY    60  58  92 NW8       30.13R
SULPHUR SPRNGS MOSUNNY   62  61  96 W8        30.14R
MOUNT PLEASANT CLOUDY    60  59  94 NW10      30.10F
GILMER         CLOUDY    59  58  95 NW10G17   29.98S
MINEOLA        CLOUDY    61  59  94 W3        30.12R
TYLER          CLOUDY    60  60 100 NW9       30.09R
LONGVIEW       RAIN      61  61 100 S13       30.04F
MARSHALL       CLOUDY   N/A N/A N/A MISG        N/A
ATHENS         CLOUDY    59  59 100 CALM      30.11R
PALESTINE      CLOUDY    61  60  97 NW8       30.10R
JACKSONVILLE   CLOUDY    59  58  97 E12G17    30.02F
HENDERSON      LGT RAIN  59  58  96 SE13G18   30.03F
CENTER         LGT RAIN  63  62  96 SE7       30.13F
NACOGDOCHES    LGT RAIN  60  58  92 E12       30.11F
LUFKIN         RAIN      60  59  96 NE8       30.13F
$$

SUPPLEMENTAL OBSERVATIONS (NWS FORT WORTH AREA)

CITY           SKY/WX    TMP DP  RH WIND       PRES   REMARKS
DENISON DAM      N/A     59  54  82 N20         N/A
CADDO GRASSLND   N/A     61  57  88 N2          N/A
PAT MAYSE LAKE   N/A     59  57  94 W3          N/A
GREENVILLE       N/A     63  57  82 NW6         N/A
CEDAR HILL       N/A     63  59  88 NW6         N/A
LBJ GRASSLAND    N/A     57  52  82 NW7G15      N/A
POSSUM KINGDOM   N/A     59  52  77 N12         N/A
GRANBURY         N/A     63  57  82 NW13        N/A
COMANCHE         N/A     57  54  88 N13         N/A
MCGREGOR         N/A     63  59  88 N5          N/A
TEMPLE           N/A     63  59  88 N8          N/A
LAKE LIMESTONE   N/A     63  59  88 W3          N/A
ATHENS           N/A     61  59  94 W2          N/A
$$

SUPPLEMENTAL OBSERVATIONS (NWS NORMAN AREA)

CITY           SKY/WX    TMP DP  RH WIND       PRES   REMARKS
GOODLETT         N/A     57  38  49 NW8       30.28R
ODELL            N/A     56  42  59 NW9       30.28R
CROWELL          N/A     58  40  51 NW10      30.29R
KNOX CITY        N/A     58  39  49 NW6       30.29R
SEYMOUR          N/A     56  44  63 NW9       30.27R
MILLERS CREEK    N/A     57  46  67 NW6         N/A
$$

SUPPLEMENTAL OBSERVATIONS (NWS SAN ANGELO AREA)

CITY           SKY/WX    TMP DP  RH WIND       PRES   REMARKS
WEINERT          N/A     56  43  61 N8        30.29R
HASKELL          N/A     57  40  53 N9        30.28S
THROCKMORTON     N/A     58  47  68 NW8       30.27R
STAMFORD         N/A     58  45  62 N10       30.28S
CLYDE            N/A     54  46  73 N9        30.28R
HAMBY            N/A     55  43  62 N6          N/A
IVIE RESERVOIR   N/A     63  45  51 NW5         N/A
COLORADO BEND    N/A     57  54  88 N6G17       N/A
$$

SUPPLEMENTAL OBSERVATIONS (NWS SHREVEPORT AREA)

CITY           SKY/WX    TMP DP  RH WIND       PRES   REMARKS
CLARKSVILLE      N/A     61  57  88 NW1         N/A
TEXARKANA        N/A     59  57  94 E1G10       N/A
LINDEN           N/A     59  55  88 N5G14       N/A
CADDO LAKE       N/A     61  59  94 SW1G9       N/A
GILMER           N/A     61  57  88 NW9         N/A
HENDERSON        N/A     61  57  88 SE9G18      N/A
LUFKIN           N/A     61  59  94 MISG        N/A
S SABINE NF      N/A    N/A N/A N/A S1          N/A
$$

SUPPLEMENTAL OBSERVATIONS ARE A COLLECTION OF AUTOMATED INSTRUMENTS
THAT ARE MAINTAINED BY A VARIETY OF FEDERAL AND STATE AGENCIES.
CERTAIN ELEMENTS...SUCH AS HUMIDITY VALUES AND SUSTAINED WIND
SPEEDS...MAY BE APPROXIMATED.





USA.gov is the U.S. government's official web portal to all federal, state and local government web resources and services.